This is the latest recevied weather packets stored in our database for station/object G4KVI. If no packets are shown the sender has not sent any weather packets the latest 10 day(s).
| Time | Temp. | Humidity | Pressure | Rain* | Wind** | Luminosity | Snow |
|---|---|---|---|---|---|---|---|
| 1777478104 | 18.89° C | 25% | 1022.3 hPa | 0 mm | - | 405 W/m² | - |
| 1777477804 | 18.89° C | 25% | 1022.3 hPa | 0 mm | - | 425 W/m² | - |
| 1777477504 | 18.89° C | 25% | 1022.3 hPa | 0 mm | - | 222 W/m² | - |
| 1777477204 | 19.44° C | 25% | 1022.2 hPa | 0 mm | - | 375 W/m² | - |
| 1777476904 | 19.44° C | 26% | 1022.3 hPa | 0 mm | - | 433 W/m² | - |
| 1777476604 | 19.44° C | 27% | 1022.2 hPa | 0 mm | - | 410 W/m² | - |
| 1777476304 | 18.89° C | 27% | 1022.2 hPa | 0 mm | - | 406 W/m² | - |
| 1777476004 | 18.89° C | 26% | 1022.5 hPa | 0 mm | - | 444 W/m² | - |
| 1777475704 | 18.89° C | 26% | 1022.3 hPa | 0 mm | - | 471 W/m² | - |
| 1777475404 | 18.89° C | 25% | 1022.4 hPa | 0 mm | - | 437 W/m² | - |
| 1777475104 | 18.89° C | 26% | 1022.4 hPa | 0 mm | - | 427 W/m² | - |
| 1777474804 | 18.89° C | 26% | 1022.6 hPa | 0 mm | - | 421 W/m² | - |
| 1777474504 | 18.89° C | 25% | 1022.6 hPa | 0 mm | - | 419 W/m² | - |
| 1777474204 | 18.89° C | 26% | 1022.5 hPa | 0 mm | - | 484 W/m² | - |
| 1777473904 | 18.89° C | 27% | 1022.3 hPa | 0 mm | - | 435 W/m² | - |
| 1777473604 | 18.33° C | 27% | 1022.9 hPa | 0 mm | - | 461 W/m² | - |
| 1777473304 | 18.33° C | 27% | 1022.8 hPa | 0 mm | - | 420 W/m² | - |
| 1777473004 | 18.33° C | 27% | 1022.8 hPa | 0 mm | - | 451 W/m² | - |
| 1777472704 | 18.33° C | 29% | 1022.9 hPa | 0 mm | - | 465 W/m² | - |
| 1777472405 | 18.33° C | 28% | 1023 hPa | 0 mm | - | 423 W/m² | - |
| 1777472104 | 18.33° C | 28% | 1022.8 hPa | 0 mm | - | 409 W/m² | - |
| 1777471804 | 18.33° C | 27% | 1022.9 hPa | 0 mm | - | 363 W/m² | - |
| 1777471504 | 18.33° C | 28% | 1023.2 hPa | 0 mm | - | 406 W/m² | - |
| 1777471204 | 18.33° C | 29% | 1023 hPa | 0 mm | - | 410 W/m² | - |
| 1777470904 | 18.33° C | 29% | 1023 hPa | 0 mm | - | 429 W/m² | - |
* Rain latest hour (hover to see other rain measurements)
** Current wind speed in m/s (hover to see current wind gust speed)